Location: ??
(31.9467°N, 34.8903°E)
Time: 16:18:06
(UTC+00:00)

Hubble Space Telescope - Visible Passes

Search period start: 22 January 2021 00:00
Search period end: 01 February 2021 00:00
Orbit: 536 x 539 km, 28.5° (Epoch: 22 January)

Date Brightness Start Highest point End Pass type
(mag) Time Alt. Az. Time Alt. Az. Time Alt. Az.
22 Jan 1.3 16:06:30 10° WSW 16:10:32 53° S 16:13:11 20° ESE visible
22 Jan 3.7 17:47:39 10° W 17:48:31 15° WSW 17:48:31 15° WSW visible
23 Jan 1.3 15:55:40 10° W 15:59:41 52° S 16:03:07 14° ESE visible
23 Jan 3.3 17:36:54 10° WSW 17:38:27 19° WSW 17:38:27 19° WSW visible
24 Jan 1.5 15:44:50 10° W 15:48:50 50° S 15:52:51 10° ESE visible
24 Jan 2.9 17:26:11 10° WSW 17:28:27 23° SW 17:28:27 23° SW visible
25 Jan 1.6 15:34:00 10° W 15:37:59 47° S 15:41:57 10° ESE visible
25 Jan 2.7 17:15:31 10° WSW 17:18:32 23° SSW 17:18:32 23° SSW visible
26 Jan 2.9 17:04:55 10° WSW 17:07:54 19° SSW 17:08:43 18° S visible
27 Jan 3.3 16:54:28 10° WSW 16:56:59 16° SSW 16:59:01 12° S visible
28 Jan 3.5 16:44:16 10° SW 16:46:03 12° SSW 16:47:49 10° S visible
